Дата Пункты Температура Давл., мм. Влажн., % Ветер Погодные явления
Воздуха Воды Направл. Скорость
11.02.18 11:00 Одесса 3.0 3.0 753 86 С 5 11 ЧАСОВ
11.02.18 08:00 Одесса 1.0 3.0 755 86 С-В 5 08 ЧАСОВ
11.02.18 05:00 Одесса 1.0 4.0 755 90 С-В 7 05 ЧАСОВ
11.02.18 02:00 Одесса 2.0 4.0 757 87 С-В 3 02 ЧАСА
10.02.18 11:00 Одесса 2.0 3.0 758 87 В 3 23 ЧАСА
10.02.18 08:00 Одесса 2.0 3.0 759 85 С 0 20 ЧАСОВ
10.02.18 05:00 Одесса 2.0 3.0 758 84 Ю-В 2 17 ЧАСОВ
10.02.18 02:00 Одесса 4.0 3.0 758 71 З 2 14 ЧАСОВ
10.02.18 11:00 Одесса 2.0 2.0 759 81 З 2 11 ЧАСОВ
09.02.18 11:00 Одесса 1.0 2.0 757 86 З 3 23 ЧАСА
09.02.18 08:00 Одесса 1.0 2.0 756 91 З 2 20 ЧАСОВ
09.02.18 05:00 Одесса 2.0 3.0 755 80 З 2 17 ЧАСОВ
09.02.18 02:00 Одесса 3.0 3.0 754 83 З 2 14 ЧАСОВ
09.02.18 11:00 Одесса 2.0 2.0 754 90 С 0 11 ЧАСОВ
09.02.18 08:00 Одесса 2.0 2.0 754 90 Ю-З 1 08 ЧАСОВ
09.02.18 05:00 Одесса 1.0 3.0 754 94 Ю-З 2 05 ЧАСОВ
09.02.18 02:00 Одесса 3.0 3.0 753 89 З 4 02 ЧАСА
08.02.18 11:00 Одесса 4.0 3.0 752 88 З 3 23 ЧАСА
08.02.18 08:00 Одесса 6.0 3.0 752 98 Ю-З 2 20 ЧАСОВ
08.02.18 05:00 Одесса 3.0 3.0 752 97 В 3 17 ЧАСОВ
Количество строк
1 2 3 4 5 6 7 8 9 10
Page 4 of 330